Torna al catalogo

COSMOS 2251 DEB

AttivoLEO
NORAD 34387·DEBRIS·🇷🇺 Russia

Lanciato Jun 16, 1993 da Plesetsk Cosmodrome

Loading…

Prossimi Passaggi (prossime 24 ore)

TLE

AggiornatoSource: Space-Track

Epoca: Sep 14, 2026, 10:12 UTC

1 34387U 93036QC  26257.42567894  .00000696  00000-0  20804-3 0  9991
2 34387  74.0393  59.2060 0037392  89.1071 299.6355 14.44360394921611

Traccia COSMOS 2251 DEB in tempo reale con AllMySat

Download on the App Store